STARLINK-4693, 53605

Orbit data source: Space-Track

STARLINK-4693, 53605 is a payload satellite owned by SpaceX/Seattle (US) in LEO that was launched on Sun, 28 Aug 2022 UTC via an FALCON 9 launch vehicle from the Air Force Eastern Test Range (AFETR). Payload-class satellites include a variety of spacecraft equipped with specific instruments for various scientific and technological missions. These include communications satellites like Starlink; space stations such as the ISS; scientific satellites like the Hubble; Earth observation satellites from companies like Planet Labs, Umbra, and HawkEye 360; GPS; miniature CubeSats for education and research; and military/defense satellites.

Loading next visibility...
Identifier
53605, 2022-104T
Orbit
LEO
Country
Flag of USUS
Related business
Manufacturer
SpaceX/Seattle
Mission
Operational Commercial Communications
Bus & Motor
STARLINK, Unknown motor
Mass
300 kg wet, ~290 kg dry
Launch date (UTC)
2022-08-28 (3 years ago)
Launch vehicle
FALCON 9
Launch site
Air Force Eastern Test Range (AFETR)
Object type
Payload
Rocket body
Debris
Shape & HBR
Box + 1 Pan, 10.1 m
Radar Cross Section
13.562 m², Large (>1 m²)

Expand to show TLE details & history
Last TLE update: 18 hours ago

TLE from 18 hours ago
0 STARLINK-4693
1 53605U 22104T   25347.21754505  .00000027  00000-0  19802-4 0  9991
2 53605  53.2164 272.0847 0001348  94.8543 265.2603 15.08838033182566
Epoch: 2025-12-13T05:13Z
TLE epoch observation values (Epoch: 2025-12-13T05:13:15.892Z)
Latitude
-0.00002°
Longitude
111.62049°
Altitude
540.724 km
Speed
7.593 km/s
True Right ascension
18h 08m 20s
True Declination
0° 00' 00"
Sunlit
Object was in daylight at epoch
Visualization orbit readout
Latitude
Unknown
Longitude
Unknown
Altitude
Unknown
Speed
Unknown
Apparent Right ascension
Unknown
Apparent Declination
Unknown
Sunlit
N/A
Visualization observer readout
Local Sidereal Time
21:44:11
Azimuth
Unknown
Elevation
Unknown
Doppler factor
Unknown
Orbital elements
Apogee altitude
540.927 km
Perigee altitude
539.062 km
Semi-major axis
6,918.132 km
Eccentricity
0.00013
Inclination
53.2164°
RAAN
272.0847°
Arg. of periapsis
94.8543°
True anomaly
265.24491°
Mean anomaly
265.2603°
Eccentric anomaly
265.2526°
Mean motion
3.7719 °/min
Orbital period
95.44 mins
BSTAR
0.000019802
Loading maneuver chart data...
Computing Atmospheric mass density...
Loading historical data...
Loading historical data...
Loading historical data...
Loading historical data...
Loading historical data...
Loading historical data...
Loading historical data...

Documentation

Showing up to 5 results
|